This is the latest recevied weather packets stored in our database for station/object OE6JUE. If no packets are shown the sender has not sent any weather packets the latest 10 day(s).
| Time | Temp. | Humidity | Pressure | Rain* | Wind** | Luminosity | Snow |
|---|---|---|---|---|---|---|---|
| 1777829840 | 22.22° C | 34% | 1017.3 hPa | 0 mm | - | - | - |
| 1777829540 | 22.22° C | 34% | 1017.2 hPa | 0 mm | - | - | - |
| 1777829240 | 22.22° C | 34% | 1017.3 hPa | 0 mm | - | - | - |
| 1777828940 | 22.22° C | 34% | 1017.3 hPa | 0 mm | - | - | - |
| 1777828640 | 22.78° C | 31% | 1017.3 hPa | 0 mm | - | - | - |
| 1777828340 | 22.78° C | 31% | 1017.2 hPa | 0 mm | - | - | - |
| 1777827740 | 22.78° C | 31% | 1017.2 hPa | - | - | - | - |
| 1777827440 | 23.33° C | 31% | 1017.2 hPa | 0 mm | - | - | - |
| 1777827140 | 23.33° C | 31% | 1017.2 hPa | 0 mm | - | - | - |
| 1777826839 | 23.89° C | 30% | 1017.2 hPa | 0 mm | - | - | - |
| 1777826540 | 23.89° C | 30% | 1017.2 hPa | 0 mm | - | - | - |
| 1777826240 | 23.89° C | 30% | 1017.1 hPa | 0 mm | - | - | - |
| 1777825939 | 23.89° C | 30% | 1017.1 hPa | 0 mm | - | - | - |
| 1777825640 | 24.44° C | 30% | 1017.1 hPa | 0 mm | - | - | - |
| 1777825340 | 25° C | 30% | 1017 hPa | 0 mm | - | - | - |
| 1777825040 | 25.56° C | 29% | 1017.2 hPa | 0 mm | - | - | - |
| 1777824740 | 25.56° C | 28% | 1017.1 hPa | 0 mm | - | - | - |
| 1777824440 | 25.56° C | 28% | 1017 hPa | 0 mm | - | - | - |
| 1777824140 | 26.11° C | 29% | 1017.1 hPa | - | - | - | - |
| 1777823840 | 26.11° C | 28% | 1017.1 hPa | 0 mm | - | - | - |
| 1777823540 | 26.67° C | 28% | 1017.1 hPa | 0 mm | - | - | - |
| 1777823240 | 26.11° C | 28% | 1017.1 hPa | 0 mm | - | - | - |
| 1777822940 | 26.11° C | 27% | 1017.3 hPa | 0 mm | - | - | - |
| 1777822640 | 26.11° C | 28% | 1017.2 hPa | 0 mm | - | - | - |
| 1777822340 | 26.11° C | 28% | 1017.3 hPa | 0 mm | - | - | - |
* Rain latest hour (hover to see other rain measurements)
** Current wind speed in m/s (hover to see current wind gust speed)